| time (UTC) | temp C | wind direction | speed KPH | gust KPH | rain 1hr cm | rain 24hr cm | rain mn cm | humidity % | barometer mb |
| 20260502224547 | 15 | 355 | 8.0 | 19.3 | 0.00 | 0.00 | 0.00 | 43 | 1019.5 |
| 20260502224047 | 15 | 79 | 8.0 | 19.3 | 0.00 | 0.00 | 0.00 | 43 | 1019.5 |
| 20260502223547 | 15 | 28 | 6.4 | 19.3 | 0.00 | 0.00 | 0.00 | 45 | 1019.5 |
| 20260502223043 | 15 | 271 | 11.3 | 19.3 | 0.00 | 0.00 | 0.00 | 43 | 1019.5 |
| 20260502222543 | 15 | 324 | 4.8 | 12.9 | 0.00 | 0.00 | 0.00 | 44 | 1019.5 |
| 20260502222045 | 15 | 338 | 4.8 | 12.9 | 0.00 | 0.00 | 0.00 | 47 | 1019.5 |
| 20260502221544 | 15 | 281 | 6.4 | 16.1 | 0.00 | 0.00 | 0.00 | 43 | 1019.5 |
| 20260502221043 | 15 | 296 | 8.0 | 19.3 | 0.00 | 0.00 | 0.00 | 48 | 1019.5 |
| 20260502220644 | 15 | 360 | 8.0 | 19.3 | 0.00 | 0.00 | 0.00 | 47 | 1019.5 |
| 20260502220057 | 15 | 296 | 4.8 | 16.1 | 0.00 | 0.00 | 0.00 | 45 | 1019.6 |
| 20260502215541 | 15 | 321 | 6.4 | 12.9 | 0.00 | 0.00 | 0.00 | 45 | 1019.5 |
| 20260502215042 | 15 | 11 | 4.8 | 19.3 | 0.00 | 0.00 | 0.00 | 46 | 1019.5 |
| 20260502214542 | 14 | 306 | 3.2 | 19.3 | 0.00 | 0.00 | 0.00 | 48 | 1019.5 |
| 20260502214041 | 15 | 5 | 4.8 | 19.3 | 0.00 | 0.00 | 0.00 | 45 | 1019.6 |
| 20260502213541 | 15 | 338 | 4.8 | 19.3 | 0.00 | 0.00 | 0.00 | 44 | 1019.5 |
| 20260502213041 | 15 | 292 | 3.2 | 19.3 | 0.00 | 0.00 | 0.00 | 44 | 1019.5 |
| 20260502212538 | 15 | 300 | 6.4 | 19.3 | 0.00 | 0.00 | 0.00 | 46 | 1019.6 |
| 20260502212037 | 15 | 290 | 8.0 | 14.5 | 0.00 | 0.00 | 0.00 | 47 | 1019.5 |
| 20260502211541 | 14 | 315 | 4.8 | 17.7 | 0.00 | 0.00 | 0.00 | 45 | 1019.4 |
| 20260502211040 | 13 | 279 | 3.2 | 17.7 | 0.00 | 0.00 | 0.00 | 50 | 1019.5 |
| 20260502210501 | 14 | 333 | 4.8 | 24.1 | 0.00 | 0.00 | 0.00 | 49 | 1019.5 |
| 20260502210001 | 15 | 288 | 8.0 | 19.3 | 0.00 | 0.00 | 0.00 | 43 | 1019.4 |
| 20260502205501 | 15 | 311 | 4.8 | 20.9 | 0.00 | 0.00 | 0.00 | 46 | 1019.6 |
| 20260502205101 | 15 | 316 | 8.0 | 20.9 | 0.00 | 0.00 | 0.00 | 46 | 1019.5 |
| 20260502204610 | 15 | 327 | 6.4 | 19.3 | 0.00 | 0.00 | 0.00 | 44 | 1019.4 |
| 20260502204101 | 15 | 330 | 8.0 | 19.3 | 0.00 | 0.00 | 0.00 | 42 | 1019.5 |
| 20260502203559 | 15 | 281 | 4.8 | 17.7 | 0.00 | 0.00 | 0.00 | 50 | 1019.5 |
| 20260502203112 | 15 | 281 | 8.0 | 17.7 | 0.00 | 0.00 | 0.00 | 47 | 1019.6 |
| 20260502202557 | 15 | 309 | 6.4 | 16.1 | 0.00 | 0.00 | 0.00 | 45 | 1019.7 |
| 20260502202101 | 15 | 338 | 3.2 | 19.3 | 0.00 | 0.00 | 0.00 | 48 | 1019.8 |
| 20260502201545 | 15 | 310 | 6.4 | 19.3 | 0.00 | 0.00 | 0.00 | 44 | 1020.1 |
| 20260502201042 | 15 | 326 | 4.8 | 14.5 | 0.00 | 0.00 | 0.00 | 51 | 1020.1 |
| 20260502200642 | 14 | 321 | 3.2 | 16.1 | 0.00 | 0.00 | 0.00 | 48 | 1020.2 |
| 20260502200040 | 14 | 332 | 4.8 | 19.3 | 0.00 | 0.00 | 0.00 | 45 | 1020.3 |
| 20260502195539 | 14 | 355 | 6.4 | 22.5 | 0.00 | 0.00 | 0.00 | 47 | 1020.3 |
| 20260502195039 | 15 | 342 | 4.8 | 22.5 | 0.00 | 0.00 | 0.00 | 47 | 1020.3 |
| 20260502194544 | 15 | 345 | 8.0 | 20.9 | 0.00 | 0.00 | 0.00 | 44 | 1020.3 |
| 20260502194039 | 15 | 289 | 8.0 | 20.9 | 0.00 | 0.00 | 0.00 | 46 | 1020.3 |
| 20260502193539 | 16 | 298 | 9.7 | 20.9 | 0.00 | 0.00 | 0.00 | 47 | 1020.1 |
| 20260502193039 | 16 | 321 | 8.0 | 22.5 | 0.00 | 0.00 | 0.00 | 47 | 1020.3 |
| 20260502192538 | 16 | 317 | 12.9 | 22.5 | 0.00 | 0.00 | 0.00 | 42 | 1020.3 |
| 20260502192037 | 16 | 348 | 8.0 | 22.5 | 0.00 | 0.00 | 0.00 | 45 | 1020.3 |
| 20260502191542 | 15 | 330 | 1.6 | 16.1 | 0.00 | 0.00 | 0.00 | 49 | 1020.3 |
| 20260502191040 | 15 | 328 | 4.8 | 20.9 | 0.00 | 0.00 | 0.00 | 44 | 1020.3 |
| 20260502190637 | 15 | 333 | 4.8 | 20.9 | 0.00 | 0.00 | 0.00 | 42 | 1020.3 |
| 20260502190107 | 15 | 43 | 6.4 | 24.1 | 0.00 | 0.00 | 0.00 | 50 | 1020.4 |
| 20260502185557 | 15 | 273 | 9.7 | 24.1 | 0.00 | 0.00 | 0.00 | 45 | 1020.4 |
| 20260502185056 | 15 | 348 | 8.0 | 20.9 | 0.00 | 0.00 | 0.00 | 43 | 1020.4 |
| 20260502184556 | 15 | 340 | 6.4 | 24.1 | 0.00 | 0.00 | 0.00 | 45 | 1020.5 |
| 20260502184056 | 15 | 306 | 6.4 | 24.1 | 0.00 | 0.00 | 0.00 | 45 | 1020.4 |
| 20260502183555 | 15 | 344 | 9.7 | 20.9 | 0.00 | 0.00 | 0.00 | 42 | 1020.4 |
| 20260502183100 | 15 | 348 | 6.4 | 16.1 | 0.00 | 0.00 | 0.00 | 47 | 1020.5 |
| 20260502182558 | 14 | 300 | 3.2 | 22.5 | 0.00 | 0.00 | 0.00 | 52 | 1020.6 |
| 20260502182054 | 13 | 315 | 8.0 | 24.1 | 0.00 | 0.00 | 0.00 | 46 | 1020.6 |
| 20260502181557 | 15 | 305 | 11.3 | 24.1 | 0.00 | 0.00 | 0.00 | 47 | 1020.5 |
| 20260502181053 | 15 | 317 | 6.4 | 24.1 | 0.00 | 0.00 | 0.00 | 46 | 1020.5 |
| 20260502180654 | 15 | 318 | 11.3 | 24.1 | 0.00 | 0.00 | 0.00 | 47 | 1020.6 |
| 20260502180113 | 15 | 295 | 8.0 | 24.1 | 0.00 | 0.00 | 0.00 | 42 | 1020.6 |
| 20260502164053 | 14 | 300 | 9.7 | 24.1 | 0.00 | 0.00 | 0.00 | 48 | 1020.6 |
| 20260502163553 | 13 | 21 | 12.9 | 24.1 | 0.00 | 0.00 | 0.00 | 50 | 1020.7 |
| 20260502163107 | 13 | 348 | 9.7 | 22.5 | 0.00 | 0.00 | 0.00 | 51 | 1020.7 |
| 20260502162550 | 15 | 5 | 12.9 | 24.1 | 0.00 | 0.00 | 0.00 | 53 | 1020.6 |
| 20260502162049 | 14 | 28 | 11.3 | 24.1 | 0.00 | 0.00 | 0.00 | 47 | 1020.5 |
| 20260502161548 | 15 | 331 | 8.0 | 22.5 | 0.00 | 0.00 | 0.00 | 52 | 1020.5 |
| 20260502161048 | 13 | 16 | 9.7 | 22.5 | 0.00 | 0.00 | 0.00 | 53 | 1020.4 |
| 20260502160647 | 12 | 296 | 9.7 | 29.0 | 0.00 | 0.00 | 0.00 | 51 | 1020.6 |
| 20260502152046 | 12 | 344 | 9.7 | 27.4 | 0.00 | 0.00 | 0.00 | 61 | 1020.4 |
| 20260502151545 | 13 | 355 | 6.4 | 20.9 | 0.00 | 0.00 | 0.00 | 62 | 1020.3 |
| 20260502151046 | 13 | 340 | 4.8 | 14.5 | 0.00 | 0.00 | 0.00 | 68 | 1020.3 |
| 20260502150642 | 12 | 351 | 6.4 | 14.5 | 0.00 | 0.00 | 0.00 | 66 | 1020.3 |
| 20260502130506 | 6 | 23 | 1.6 | 11.3 | 0.00 | 0.00 | 0.00 | 91 | 1019.8 |
| 20260502123603 | 5 | 310 | 0.0 | 4.8 | 0.00 | 0.00 | 0.00 | 95 | 1019.6 |
| 20260502123105 | 5 | 325 | 0.0 | 0.0 | 0.00 | 0.00 | 0.00 | 95 | 1019.6 |
| 20260502122556 | 5 | 315 | 0.0 | 0.0 | 0.00 | 0.00 | 0.00 | 95 | 1019.4 |
| 20260502122055 | 4 | 306 | 0.0 | 0.0 | 0.00 | 0.00 | 0.00 | 96 | 1019.3 |
| 20260502121559 | 4 | 310 | 0.0 | 0.0 | 0.00 | 0.00 | 0.00 | 95 | 1019.3 |
| 20260502121054 | 4 | 310 | 0.0 | 0.0 | 0.00 | 0.00 | 0.00 | 96 | 1019.3 |
| 20260502120654 | 4 | 313 | 0.0 | 0.0 | 0.00 | 0.00 | 0.00 | 96 | 1019.1 |
| 20260502115601 | 3 | 313 | 0.0 | 0.0 | 0.00 | 0.00 | 0.00 | 95 | 1018.9 |
| 20260502115057 | 3 | 313 | 0.0 | 0.0 | 0.00 | 0.00 | 0.00 | 96 | 1019.0 |
| 20260502114556 | 3 | 313 | 0.0 | 0.0 | 0.00 | 0.00 | 0.00 | 96 | 1018.8 |
| 20260502114055 | 3 | 313 | 0.0 | 0.0 | 0.00 | 0.00 | 0.00 | 95 | 1018.8 |
| 20260502113556 | 3 | 313 | 0.0 | 0.0 | 0.00 | 0.00 | 0.00 | 95 | 1018.7 |
| 20260502113055 | 3 | 313 | 0.0 | 0.0 | 0.00 | 0.00 | 0.00 | 95 | 1018.6 |
| 20260502112551 | 3 | 313 | 0.0 | 0.0 | 0.00 | 0.00 | 0.00 | 95 | 1018.5 |
| 20260502112050 | 3 | 313 | 0.0 | 0.0 | 0.00 | 0.00 | 0.00 | 95 | 1018.5 |
| 20260502111551 | 3 | 313 | 0.0 | 0.0 | 0.00 | 0.00 | 0.00 | 95 | 1018.3 |
| 20260502111052 | 3 | 313 | 0.0 | 0.0 | 0.00 | 0.00 | 0.00 | 95 | 1018.3 |
| 20260502110650 | 3 | 313 | 0.0 | 0.0 | 0.00 | 0.00 | 0.00 | 95 | 1018.3 |
| 20260502110046 | 3 | 313 | 0.0 | 0.0 | 0.00 | 0.00 | 0.00 | 95 | 1018.3 |
| 20260502105545 | 3 | 313 | 0.0 | 0.0 | 0.00 | 0.00 | 0.00 | 95 | 1018.2 |
| 20260502105045 | 3 | 313 | 0.0 | 0.0 | 0.00 | 0.00 | 0.00 | 95 | 1018.1 |
| 20260502104545 | 3 | 313 | 0.0 | 0.0 | 0.00 | 0.00 | 0.00 | 95 | 1018.0 |
| 20260502104045 | 3 | 313 | 0.0 | 0.0 | 0.00 | 0.00 | 0.00 | 95 | 1017.9 |
| 20260502103545 | 3 | 313 | 0.0 | 0.0 | 0.00 | 0.00 | 0.00 | 95 | 1018.0 |
| 20260502103045 | 3 | 313 | 0.0 | 0.0 | 0.00 | 0.00 | 0.00 | 95 | 1017.9 |
| 20260502102544 | 3 | 313 | 0.0 | 0.0 | 0.00 | 0.00 | 0.00 | 95 | 1017.9 |
| 20260502102044 | 3 | 313 | 0.0 | 0.0 | 0.00 | 0.00 | 0.00 | 95 | 1017.9 |
| 20260502101544 | 3 | 313 | 0.0 | 0.0 | 0.00 | 0.00 | 0.00 | 95 | 1017.9 |
| 20260502101043 | 3 | 313 | 0.0 | 0.0 | 0.00 | 0.00 | 0.00 | 95 | 1017.8 |
| 20260502100644 | 3 | 313 | 0.0 | 0.0 | 0.00 | 0.00 | 0.00 | 95 | 1017.7 |
| 20260502091037 | 3 | 313 | 0.0 | 0.0 | 0.00 | 0.00 | 0.00 | 95 | 1017.6 |
| 20260502090637 | 3 | 313 | 0.0 | 0.0 | 0.00 | 0.00 | 0.00 | 95 | 1017.6 |
| 20260502071050 | 4 | 313 | 0.0 | 0.0 | 0.00 | 0.00 | 0.00 | 95 | 1018.1 |
| 20260502070649 | 4 | 313 | 0.0 | 0.0 | 0.00 | 0.00 | 0.00 | 94 | 1018.2 |
| 20260502070056 | 4 | 313 | 0.0 | 0.0 | 0.00 | 0.00 | 0.00 | 94 | 1018.1 |
| 20260502065551 | 4 | 313 | 0.0 | 0.0 | 0.00 | 0.00 | 0.00 | 94 | 1018.0 |
| 20260502065050 | 4 | 313 | 0.0 | 0.0 | 0.00 | 0.00 | 0.00 | 94 | 1017.9 |
| 20260502064550 | 4 | 313 | 0.0 | 0.0 | 0.00 | 0.00 | 0.00 | 94 | 1018.0 |
| 20260502064050 | 4 | 313 | 0.0 | 0.0 | 0.00 | 0.00 | 0.00 | 94 | 1018.0 |
| 20260502063552 | 4 | 313 | 0.0 | 0.0 | 0.00 | 0.00 | 0.00 | 94 | 1018.1 |
| 20260502063049 | 4 | 313 | 0.0 | 0.0 | 0.00 | 0.00 | 0.00 | 94 | 1018.1 |
| 20260502062548 | 4 | 313 | 0.0 | 0.0 | 0.00 | 0.00 | 0.00 | 94 | 1018.1 |
| 20260502062051 | 4 | 313 | 0.0 | 0.0 | 0.00 | 0.00 | 0.00 | 94 | 1018.1 |
| 20260502061548 | 4 | 313 | 0.0 | 0.0 | 0.00 | 0.00 | 0.00 | 94 | 1018.1 |
| 20260502061047 | 4 | 313 | 0.0 | 0.0 | 0.00 | 0.00 | 0.00 | 94 | 1018.1 |
| 20260502060648 | 4 | 313 | 0.0 | 0.0 | 0.00 | 0.00 | 0.00 | 94 | 1018.1 |
| 20260502060048 | 4 | 313 | 0.0 | 0.0 | 0.00 | 0.00 | 0.00 | 94 | 1018.1 |
| 20260502055548 | 4 | 313 | 0.0 | 0.0 | 0.00 | 0.00 | 0.00 | 94 | 1018.1 |
| 20260502055045 | 4 | 313 | 0.0 | 0.0 | 0.00 | 0.00 | 0.00 | 94 | 1018.0 |
| 20260502054553 | 4 | 313 | 0.0 | 0.0 | 0.00 | 0.00 | 0.00 | 94 | 1017.9 |
| 20260502054045 | 4 | 313 | 0.0 | 0.0 | 0.00 | 0.00 | 0.00 | 94 | 1017.9 |
| 20260502053544 | 4 | 313 | 0.0 | 0.0 | 0.00 | 0.00 | 0.00 | 93 | 1017.9 |
| 20260502053044 | 4 | 313 | 0.0 | 0.0 | 0.00 | 0.00 | 0.00 | 93 | 1017.9 |
| 20260502052545 | 4 | 313 | 0.0 | 0.0 | 0.00 | 0.00 | 0.00 | 93 | 1017.9 |
| 20260502052045 | 5 | 313 | 0.0 | 0.0 | 0.00 | 0.00 | 0.00 | 93 | 1017.9 |
| 20260502051543 | 5 | 313 | 0.0 | 0.0 | 0.00 | 0.00 | 0.00 | 93 | 1018.0 |
| 20260502051041 | 5 | 313 | 0.0 | 0.0 | 0.00 | 0.00 | 0.00 | 93 | 1018.0 |
| 20260502050641 | 5 | 313 | 0.0 | 0.0 | 0.00 | 0.00 | 0.00 | 93 | 1018.0 |
| 20260502050047 | 5 | 313 | 0.0 | 0.0 | 0.00 | 0.00 | 0.00 | 93 | 1018.0 |
| 20260502045542 | 5 | 313 | 0.0 | 0.0 | 0.00 | 0.00 | 0.00 | 93 | 1018.1 |
| 20260502045041 | 5 | 313 | 0.0 | 0.0 | 0.00 | 0.00 | 0.00 | 93 | 1018.1 |
| 20260502044547 | 5 | 313 | 0.0 | 0.0 | 0.00 | 0.00 | 0.00 | 92 | 1018.0 |
| 20260502044039 | 5 | 313 | 0.0 | 0.0 | 0.00 | 0.00 | 0.00 | 92 | 1018.2 |
| 20260502043539 | 5 | 313 | 0.0 | 0.0 | 0.00 | 0.00 | 0.00 | 92 | 1018.2 |
| 20260502043047 | 5 | 313 | 0.0 | 0.0 | 0.00 | 0.00 | 0.00 | 91 | 1018.1 |
| 20260502042540 | 5 | 313 | 0.0 | 0.0 | 0.00 | 0.00 | 0.00 | 91 | 1018.2 |
| 20260502042039 | 5 | 313 | 0.0 | 0.0 | 0.00 | 0.00 | 0.00 | 91 | 1018.2 |
| 20260502041546 | 5 | 313 | 0.0 | 0.0 | 0.00 | 0.00 | 0.00 | 91 | 1018.3 |
| 20260502041038 | 5 | 313 | 0.0 | 0.0 | 0.00 | 0.00 | 0.00 | 90 | 1018.3 |
| 20260502040638 | 5 | 313 | 0.0 | 0.0 | 0.00 | 0.00 | 0.00 | 90 | 1018.3 |
| 20260502040035 | 6 | 313 | 0.0 | 0.0 | 0.00 | 0.00 | 0.00 | 90 | 1018.4 |
| 20260502035534 | 6 | 313 | 0.0 | 0.0 | 0.00 | 0.00 | 0.00 | 89 | 1018.4 |
| 20260502035034 | 6 | 313 | 0.0 | 0.0 | 0.00 | 0.00 | 0.00 | 89 | 1018.5 |
| 20260502034538 | 6 | 313 | 0.0 | 0.0 | 0.00 | 0.00 | 0.00 | 89 | 1018.6 |
| 20260502034035 | 6 | 313 | 0.0 | 0.0 | 0.00 | 0.00 | 0.00 | 89 | 1018.6 |
| 20260502033535 | 6 | 313 | 0.0 | 0.0 | 0.00 | 0.00 | 0.00 | 89 | 1018.6 |
| 20260502033034 | 6 | 313 | 0.0 | 0.0 | 0.00 | 0.00 | 0.00 | 89 | 1018.6 |
| 20260502032533 | 6 | 313 | 0.0 | 0.0 | 0.00 | 0.00 | 0.00 | 90 | 1018.7 |
| 20260502032033 | 6 | 313 | 0.0 | 0.0 | 0.00 | 0.00 | 0.00 | 91 | 1018.7 |
| 20260502031533 | 6 | 313 | 0.0 | 0.0 | 0.00 | 0.00 | 0.00 | 90 | 1018.7 |
| 20260502031033 | 6 | 313 | 0.0 | 0.0 | 0.00 | 0.00 | 0.00 | 90 | 1018.7 |
| 20260502030633 | 6 | 313 | 0.0 | 0.0 | 0.00 | 0.00 | 0.00 | 90 | 1018.7 |
| 20260502030052 | 6 | 313 | 0.0 | 0.0 | 0.00 | 0.00 | 0.00 | 90 | 1018.8 |
| 20260502025551 | 6 | 313 | 0.0 | 0.0 | 0.00 | 0.00 | 0.00 | 89 | 1018.8 |
| 20260502025051 | 6 | 313 | 0.0 | 0.0 | 0.00 | 0.00 | 0.00 | 89 | 1018.9 |
| 20260502024553 | 6 | 313 | 0.0 | 0.0 | 0.00 | 0.00 | 0.00 | 89 | 1018.9 |
| 20260502024051 | 6 | 313 | 0.0 | 0.0 | 0.00 | 0.00 | 0.00 | 88 | 1018.8 |
| 20260502023551 | 6 | 313 | 0.0 | 0.0 | 0.00 | 0.00 | 0.00 | 87 | 1018.8 |
| 20260502023051 | 6 | 313 | 0.0 | 0.0 | 0.00 | 0.00 | 0.00 | 86 | 1018.7 |
| 20260502022551 | 6 | 313 | 0.0 | 0.0 | 0.00 | 0.00 | 0.00 | 86 | 1018.7 |
| 20260502022050 | 6 | 313 | 0.0 | 0.0 | 0.00 | 0.00 | 0.00 | 85 | 1018.6 |
| 20260502021551 | 6 | 313 | 0.0 | 0.0 | 0.00 | 0.00 | 0.00 | 85 | 1018.4 |
| 20260502021050 | 6 | 313 | 0.0 | 0.0 | 0.00 | 0.00 | 0.00 | 85 | 1018.4 |
| 20260502020650 | 7 | 313 | 0.0 | 0.0 | 0.00 | 0.00 | 0.00 | 85 | 1018.4 |
| 20260502020047 | 7 | 313 | 0.0 | 0.0 | 0.00 | 0.00 | 0.00 | 84 | 1018.3 |
| 20260502015547 | 7 | 313 | 0.0 | 0.0 | 0.00 | 0.00 | 0.00 | 83 | 1018.3 |
| 20260502015046 | 7 | 313 | 0.0 | 0.0 | 0.00 | 0.00 | 0.00 | 83 | 1018.2 |
| 20260502014555 | 7 | 313 | 0.0 | 0.0 | 0.00 | 0.00 | 0.00 | 82 | 1018.2 |
| 20260502014046 | 8 | 313 | 0.0 | 0.0 | 0.00 | 0.00 | 0.00 | 80 | 1017.9 |
| 20260502013547 | 8 | 313 | 0.0 | 0.0 | 0.00 | 0.00 | 0.00 | 78 | 1017.9 |
| 20260502013052 | 8 | 313 | 0.0 | 0.0 | 0.00 | 0.00 | 0.00 | 79 | 1017.7 |
| 20260502012546 | 8 | 313 | 0.0 | 0.0 | 0.00 | 0.00 | 0.00 | 78 | 1017.7 |
| 20260502012046 | 8 | 313 | 0.0 | 0.0 | 0.00 | 0.00 | 0.00 | 74 | 1017.6 |
| 20260502011549 | 9 | 313 | 0.0 | 0.0 | 0.00 | 0.00 | 0.00 | 74 | 1017.4 |
| 20260502011046 | 9 | 313 | 0.0 | 0.0 | 0.00 | 0.00 | 0.00 | 73 | 1017.3 |
| 20260502010647 | 10 | 313 | 0.0 | 0.0 | 0.00 | 0.00 | 0.00 | 73 | 1017.2 |
| 20260502010044 | 10 | 313 | 0.0 | 0.0 | 0.00 | 0.00 | 0.00 | 70 | 1017.3 |
| 20260502005544 | 10 | 313 | 0.0 | 0.0 | 0.00 | 0.00 | 0.00 | 69 | 1017.1 |
| 20260502005044 | 11 | 313 | 0.0 | 0.0 | 0.00 | 0.00 | 0.00 | 64 | 1017.2 |
| 20260502004546 | 11 | 313 | 0.0 | 0.0 | 0.00 | 0.00 | 0.00 | 62 | 1017.1 |
| 20260502004046 | 12 | 313 | 0.0 | 0.0 | 0.00 | 0.00 | 0.00 | 62 | 1017.1 |
| 20260502003543 | 12 | 313 | 0.0 | 0.0 | 0.00 | 0.00 | 0.00 | 59 | 1017.2 |
| 20260502003043 | 12 | 313 | 0.0 | 0.0 | 0.00 | 0.00 | 0.00 | 57 | 1017.0 |
| 20260502002542 | 13 | 313 | 0.0 | 1.6 | 0.00 | 0.00 | 0.00 | 55 | 1016.9 |
| 20260502002044 | 14 | 315 | 0.0 | 3.2 | 0.00 | 0.00 | 0.00 | 47 | 1016.9 |
| 20260502001543 | 14 | 306 | 0.0 | 4.8 | 0.00 | 0.00 | 0.00 | 49 | 1016.8 |
| 20260502001044 | 14 | 344 | 0.0 | 4.8 | 0.00 | 0.00 | 0.00 | 48 | 1016.8 |
| 20260502000643 | 14 | 339 | 0.0 | 6.4 | 0.00 | 0.00 | 0.00 | 47 | 1016.8 |
| 20260502000104 | 15 | 314 | 1.6 | 8.0 | 0.00 | 0.00 | 0.00 | 47 | 1016.8 |
| 20260501235551 | 15 | 292 | 1.6 | 9.7 | 0.00 | 0.00 | 0.00 | 44 | 1016.9 |
| 20260501235052 | 15 | 9 | 1.6 | 12.9 | 0.00 | 0.00 | 0.00 | 43 | 1016.9 |
| 20260501234552 | 15 | 288 | 1.6 | 12.9 | 0.00 | 0.00 | 0.00 | 40 | 1016.8 |
| 20260501234052 | 15 | 285 | 3.2 | 9.7 | 0.00 | 0.00 | 0.00 | 42 | 1016.9 |
| 20260501233552 | 15 | 311 | 3.2 | 12.9 | 0.00 | 0.00 | 0.00 | 42 | 1016.9 |
| 20260501233052 | 15 | 294 | 3.2 | 12.9 | 0.00 | 0.00 | 0.00 | 44 | 1017.0 |
| 20260501232553 | 15 | 295 | 4.8 | 14.5 | 0.00 | 0.00 | 0.00 | 45 | 1016.9 |
| 20260501232050 | 15 | 283 | 6.4 | 20.9 | 0.00 | 0.00 | 0.00 | 40 | 1016.7 |
| 20260501231552 | 15 | 315 | 4.8 | 20.9 | 0.00 | 0.00 | 0.00 | 42 | 1016.8 |
| 20260501231051 | 15 | 333 | 8.0 | 17.7 | 0.00 | 0.00 | 0.00 | 41 | 1016.8 |
| 20260501230653 | 15 | 349 | 6.4 | 16.1 | 0.00 | 0.00 | 0.00 | 41 | 1016.8 |
| 20260501230050 | 15 | 63 | 3.2 | 17.7 | 0.00 | 0.00 | 0.00 | 42 | 1016.7 |
| 20260501225550 | 15 | 360 | 4.8 | 17.7 | 0.00 | 0.00 | 0.00 | 46 | 1016.7 |
| 20260501225049 | 15 | 322 | 4.8 | 17.7 | 0.00 | 0.00 | 0.00 | 42 | 1016.7 |